This is the latest recevied weather packets stored in our database for station/object KO6LQJ. If no packets are shown the sender has not sent any weather packets the latest 10 day(s).
| Time | Temp. | Humidity | Pressure | Rain* | Wind** | Luminosity | Snow |
|---|---|---|---|---|---|---|---|
| 1777948728 | 15.56° C | 62% | 1016.2 hPa | 0 mm | - | 0 W/m² | - |
| 1777948425 | 15.56° C | 61% | 1016.2 hPa | 0 mm | - | 1 W/m² | - |
| 1777948122 | 16.11° C | 60% | 1016.3 hPa | 0 mm | - | 3 W/m² | - |
| 1777947819 | 16.11° C | 59% | 1016.3 hPa | 0 mm | - | 6 W/m² | - |
| 1777947516 | 16.11° C | 59% | 1016.3 hPa | 0 mm | - | 10 W/m² | - |
| 1777947212 | 16.67° C | 57% | 1016 hPa | 0 mm | - | 12 W/m² | - |
| 1777946908 | 16.67° C | 57% | 1016.1 hPa | 0 mm | - | 16 W/m² | - |
| 1777946604 | 16.67° C | 57% | 1016 hPa | 0 mm | - | 22 W/m² | - |
| 1777946301 | 16.67° C | 57% | 1016 hPa | 0 mm | - | 16 W/m² | - |
| 1777945998 | 17.22° C | 56% | 1016 hPa | 0 mm | - | 16 W/m² | - |
| 1777945695 | 17.22° C | 56% | 1016 hPa | 0 mm | - | 18 W/m² | - |
| 1777945392 | 17.22° C | 55% | 1016.1 hPa | 0 mm | - | 27 W/m² | - |
| 1777945088 | 17.22° C | 56% | 1016 hPa | 0 mm | - | 42 W/m² | - |
| 1777944786 | 17.22° C | 56% | 1016.2 hPa | 0 mm | - | 45 W/m² | - |
| 1777944484 | 17.22° C | 56% | 1016.4 hPa | 0 mm | - | 47 W/m² | - |
| 1777944182 | 17.22° C | 56% | 1016.2 hPa | 0 mm | - | 43 W/m² | - |
| 1777943877 | 17.22° C | 57% | 1016.1 hPa | 0 mm | - | 41 W/m² | - |
| 1777943574 | 17.22° C | 57% | 1016.4 hPa | 0 mm | - | 42 W/m² | - |
| 1777943270 | 17.22° C | 57% | 1016.4 hPa | 0 mm | - | 48 W/m² | - |
| 1777942967 | 17.22° C | 57% | 1016.3 hPa | 0 mm | - | 53 W/m² | - |
| 1777942663 | 17.78° C | 56% | 1016.4 hPa | 0 mm | - | 64 W/m² | - |
| 1777942360 | 17.78° C | 55% | 1016.4 hPa | 0 mm | - | 78 W/m² | - |
| 1777942057 | 17.78° C | 55% | 1016.3 hPa | 0 mm | - | 75 W/m² | - |
| 1777941753 | 17.78° C | 55% | 1016.4 hPa | 0 mm | - | 50 W/m² | - |
| 1777941451 | 17.78° C | 55% | 1016.3 hPa | 0 mm | - | 62 W/m² | - |
* Rain latest hour (hover to see other rain measurements)
** Current wind speed in m/s (hover to see current wind gust speed)